Date String (YYYY-MM-DD hh:mm:ss) UTC,Instrument flags,Ambient pressure (hPa),Sample flow (lpm),Bypass flow (lpm),Sample temperature (°C),Ambient temperature (°C),ASC tube jacket temperature (°C),LED temperature (°C),Box temperature (°C),Sample RH (%),Span deviation,Mass concentration (μg/m³),Mass concentration (μg/m³),Mass concentration (μg/m³)
DateTimeUTC,F1_M11,P_M11,Q1_M11,Q2_M11,T1_M11,T2_M11,T3_M11,T4_M11,T5_M11,U1_M11,ZSPAN_M11,X2_M11,X0_M11,X1_M11
2023-05-22 12:00:00,,0831.1,5.00,0.00,28.1,26.2,00.0,36.4,29.7,18.4,0003.4,0020.76,0028.12,0019.73
2023-05-22 12:01:00,,0831.1,5.00,0.00,28.1,26.2,00.0,36.4,29.7,18.4,0003.5,0020.89,0028.27,0019.84
2023-05-22 12:02:00,,0831.1,5.01,0.00,28.1,26.2,00.0,36.4,29.7,18.4,0003.5,0020.95,0028.08,0019.92
2023-05-22 12:03:00,,0831.2,5.00,0.00,28.1,26.2,00.0,36.4,29.7,18.3,0003.4,0021.03,0027.77,0020.03
2023-05-22 12:04:00,,0831.2,5.00,0.00,28.1,26.2,00.0,36.4,29.7,18.3,0003.4,0021.16,0027.99,0020.18
2023-05-22 12:05:00,,0831.1,5.00,0.00,28.1,26.2,00.0,36.4,29.6,18.2,0003.4,0021.32,0028.19,0020.32
2023-05-22 12:06:00,,0831.1,5.00,0.00,28.1,26.2,00.0,36.4,29.6,18.2,0003.3,0021.46,0028.60,0020.47
2023-05-22 12:07:00,,0831.1,5.00,0.00,28.0,26.2,00.0,36.4,29.6,18.3,0003.3,0021.62,0028.98,0020.61
2023-05-22 12:08:00,,0831.1,5.00,0.00,28.0,26.2,00.0,36.4,29.6,18.3,0003.2,0021.67,0028.65,0020.67
2023-05-22 12:09:00,,0831.2,5.00,0.00,28.0,26.2,00.0,36.4,29.6,18.2,0003.3,0021.73,0028.87,0020.74
2023-05-22 12:10:00,,0831.1,5.00,0.00,28.0,26.2,00.0,36.4,29.6,18.2,0003.2,0021.80,0029.27,0020.83
2023-05-22 12:11:00,,0831.2,4.99,0.00,28.0,26.2,00.0,36.4,29.6,18.2,0003.2,0021.87,0029.58,0020.92
2023-05-22 12:12:00,,0831.1,4.99,0.00,28.0,26.2,00.0,36.4,29.6,18.4,0003.1,0021.95,0029.64,0020.99
2023-05-22 12:13:00,,0831.2,5.00,0.00,28.0,26.2,00.0,36.4,29.6,18.4,0003.0,0021.95,0030.16,0021.00
2023-05-22 12:14:00,,0831.2,5.00,0.00,28.0,26.2,00.0,36.4,29.6,18.3,0003.1,0022.02,0030.68,0021.05
2023-05-22 12:15:00,,0831.1,5.01,0.00,28.0,26.2,00.0,36.4,29.6,18.2,0003.2,0022.06,0030.60,0021.09
2023-05-22 12:16:00,,0831.1,5.00,0.00,28.0,26.2,00.0,36.4,29.6,18.2,0003.2,0022.09,0030.56,0021.13
2023-05-22 12:17:00,,0831.1,5.01,0.00,28.0,26.2,00.0,36.4,29.6,18.2,0003.2,0022.19,0030.60,0021.23
2023-05-22 12:18:00,,0831.1,5.00,0.00,28.0,26.1,00.0,36.4,29.6,18.3,0003.2,0022.21,0030.29,0021.29
2023-05-22 12:19:00,,0831.1,5.01,0.00,28.0,26.1,00.0,36.3,29.6,18.4,0003.3,0022.17,0030.19,0021.30
2023-05-22 12:20:00,,0831.1,5.00,0.00,28.0,26.2,00.0,36.3,29.6,18.2,0003.3,0022.18,0030.03,0021.33
2023-05-22 12:21:00,,0831.1,4.98,0.00,28.0,26.1,00.0,36.3,29.6,18.2,0003.2,0022.28,0029.89,0021.42
2023-05-22 12:22:00,,0831.1,5.00,0.00,28.0,26.1,00.0,36.3,29.6,18.2,0003.3,0022.35,0029.72,0021.47
2023-05-22 12:23:00,,0831.1,5.01,0.00,28.0,26.1,00.0,36.3,29.6,18.1,0003.4,0022.47,0030.28,0021.60
2023-05-22 12:24:00,,0831.1,5.01,0.00,28.0,26.1,00.0,36.3,29.6,18.2,0003.4,0022.66,0030.38,0021.80
2023-05-22 12:25:00,,0831.2,4.99,0.00,28.0,26.1,00.0,36.3,29.6,18.5,0003.4,0022.80,0030.04,0021.95
2023-05-22 12:26:00,,0831.1,4.99,0.00,28.0,26.1,00.0,36.3,29.6,18.3,0003.5,0022.90,0030.24,0022.04
2023-05-22 12:27:00,,0831.1,5.00,0.00,27.9,26.1,00.0,36.3,29.6,18.1,0003.6,0023.02,0030.44,0022.17
2023-05-22 12:28:00,,0831.2,5.01,0.00,27.9,26.1,00.0,36.3,29.5,18.1,0003.6,0023.16,0031.18,0022.31
2023-05-22 12:29:00,,0831.2,5.01,0.00,27.9,26.1,00.0,36.3,29.5,18.2,0003.6,0023.27,0031.75,0022.40
2023-05-22 12:30:00,,0831.2,5.00,0.00,27.9,26.1,00.0,36.3,29.6,18.1,0003.5,0023.46,0032.25,0022.58
2023-05-22 12:31:00,,0831.2,4.99,0.00,27.9,26.1,00.0,36.3,29.6,18.0,0003.5,0023.64,0032.57,0022.74
2023-05-22 12:32:00,,0831.2,5.00,0.00,27.9,26.1,00.0,36.3,29.6,18.1,0003.6,0023.75,0032.66,0022.83
2023-05-22 12:33:00,,0831.2,5.01,0.00,27.9,26.1,00.0,36.3,29.5,18.1,0003.5,0023.92,0032.86,0022.98
2023-05-22 12:34:00,,0831.2,5.01,0.00,27.9,26.1,00.0,36.3,29.5,18.1,0003.5,0024.04,0032.63,0023.11
2023-05-22 12:35:00,,0831.2,5.00,0.00,27.9,26.1,00.0,36.3,29.5,18.1,0003.5,0024.13,0032.39,0023.20
2023-05-22 12:36:00,,0831.2,5.00,0.00,27.9,26.1,00.0,36.3,29.5,18.0,0003.5,0024.28,0032.56,0023.32
2023-05-22 12:37:00,,0831.2,4.99,0.00,27.9,26.1,00.0,36.3,29.5,17.9,0003.4,0024.42,0032.63,0023.47
2023-05-22 12:38:00,,0831.2,5.00,0.00,27.9,26.1,00.0,36.3,29.5,18.1,0003.4,0024.59,0033.25,0023.62
2023-05-22 12:39:00,,0831.2,4.99,0.00,27.9,26.1,00.0,36.3,29.5,18.2,0003.3,0024.76,0033.41,0023.74
2023-05-22 12:40:00,,0831.2,4.99,0.00,27.9,26.1,00.0,36.3,29.5,18.1,0003.4,0024.94,0033.13,0023.89
2023-05-22 12:41:00,,0831.2,5.00,0.00,27.9,26.1,00.0,36.3,29.5,18.0,0003.4,0025.14,0033.24,0024.06
2023-05-22 12:42:00,,0831.2,5.00,0.00,27.9,26.1,00.0,36.3,29.5,17.8,0003.3,0025.32,0033.38,0024.22
2023-05-22 12:43:00,,0831.2,5.00,0.00,27.9,26.1,00.0,36.3,29.5,18.0,0003.4,0025.51,0033.63,0024.40
2023-05-22 12:44:00,,0831.2,5.01,0.00,27.9,26.1,00.0,36.3,29.5,18.1,0003.5,0025.60,0033.67,0024.49
2023-05-22 12:45:00,,0831.2,5.00,0.00,27.9,26.1,00.0,36.3,29.5,18.0,0003.6,0025.71,0033.83,0024.58
2023-05-22 12:46:00,,0831.2,4.99,0.00,27.9,26.1,00.0,36.3,29.5,18.1,0003.7,0025.83,0033.98,0024.70
2023-05-22 12:47:00,,0831.2,5.00,0.00,27.9,26.1,00.0,36.3,29.5,18.3,0003.6,0025.96,0034.30,0024.82
2023-05-22 12:48:00,,0831.2,4.99,0.00,27.9,26.1,00.0,36.3,29.5,18.3,0003.7,0026.11,0034.58,0024.93
2023-05-22 12:49:00,,0831.2,4.99,0.00,27.9,26.1,00.0,36.2,29.5,18.8,0003.8,0026.11,0034.20,0024.95
2023-05-22 12:50:00,,0831.2,5.00,0.00,27.9,26.1,00.0,36.2,29.5,18.0,0003.8,0026.13,0033.83,0025.00
2023-05-22 12:51:00,,0831.2,5.00,0.00,27.9,26.1,00.0,36.2,29.5,18.1,0003.7,0026.17,0034.57,0025.04
2023-05-22 12:52:00,,0831.2,5.01,0.00,27.9,26.1,00.0,36.2,29.5,18.6,0003.7,0026.13,0034.68,0025.01
2023-05-22 12:53:00,,0831.2,5.01,0.00,27.9,26.1,00.0,36.2,29.5,17.8,0003.8,0026.17,0034.69,0025.03
2023-05-22 12:54:00,,0831.2,5.00,0.00,27.9,26.1,00.0,36.2,29.5,18.0,0003.8,0026.13,0034.60,0025.04
2023-05-22 12:55:00,,0831.2,5.00,0.00,27.9,26.1,00.0,36.2,29.5,18.5,0003.7,0026.09,0034.55,0025.03
2023-05-22 12:56:00,,0831.2,5.00,0.00,27.9,26.1,00.0,36.2,29.5,19.2,0003.6,0026.09,0034.59,0025.01
2023-05-22 12:57:00,,0831.2,5.00,0.00,27.9,26.2,00.0,36.2,29.5,19.2,0003.6,0026.06,0034.98,0024.96
2023-05-22 12:58:00,,0831.2,4.99,0.00,27.9,26.2,00.0,36.2,29.5,18.5,0003.6,0026.09,0035.35,0024.95
2023-05-22 12:59:00,,0831.2,5.00,0.00,27.9,26.2,00.0,36.2,29.5,18.0,0003.6,0026.12,0035.35,0024.98
